Regional Weather Roundup
Issued by NWS Sioux Falls, SD

Home | Current Version | Previous Version | Text Only | Print | Product List | Glossary On
Versions: 1 2 3 4 5 6 7 8 9 10 11 12 13 14 15 16 17 18 19 20 21 22 23 24 25 26 27 28 29 30 31 32 33 34 35 36 37 38 39 40 41 42 43 44 45 46 47 48 49 50
000
ASUS43 KFSD 021502
RWRFSD

WEATHER ROUNDUP FOR SE SOUTH DAKOTA/SW MINNESOTA/NW IOWA
NATIONAL WEATHER SERVICE SIOUX FALLS SD
1000 AM CDT WED SEP 02 2015

NOTE: "FAIR" INDICATES FEW OR NO CLOUDS BELOW 12,000 FEET WITH NO
SIGNIFICANT WEATHER AND OR OBSTRUCTIONS TO VISIBILITY.


SDZ038>040-050-052>070-021600-
SOUTHEAST SOUTH DAKOTA

CITY           SKY/WX    TMP DP  RH WIND       PRES   REMARKS
BROOKINGS      SUNNY     72  66  83 SE10      29.87F
CHAMBERLAIN    SUNNY     74  67  78 CALM      29.80F
HURON          SUNNY     74  68  81 SE9       29.80S
MADISON        FAIR      72  72 100 S12       29.86F
MITCHELL       SUNNY     76  69  79 SE9       29.81S
SIOUX FALLS    MOSUNNY   75  69  81 S10       29.86S
WINNER         FAIR      79  61  53 SW8       29.81F
YANKTON        SUNNY     73  68  83 SE9       29.83S
$$

MNZ071-072-080-081-089-090-097-098-021600-
SOUTHWEST MINNESOTA

CITY           SKY/WX    TMP DP  RH WIND       PRES   REMARKS
FAIRMONT       SUNNY     75  64  69 S16       29.90F
JACKSON        SUNNY     75  70  83 S17       29.91S
LUVERNE        SUNNY     73  68  83 S9        29.89S
MARSHALL       SUNNY     75  66  73 SW10      29.87S
MONTEVIDEO     SUNNY     79  70  73 S6        29.87S
PIPESTONE      SUNNY     72  68  88 S12       29.88S
REDWOOD FALLS  MOSUNNY   75  69  81 S12       29.86F
TRACY          SUNNY     74  70  85 S14       29.86F
WINDOM         SUNNY     77  68  73 S12G17    29.89F
WORTHINGTON    MOSUNNY   73  66  78 S13G20    29.90S
$$

IAZ001>003-012>014-020>022-031-032-NEZ013-014-SDZ071-021600-
NORTHWEST IOWA

CITY           SKY/WX    TMP DP  RH WIND       PRES   REMARKS
DENISON        SUNNY     77  70  78 S20G26    29.91S
ESTHERVILLE    SUNNY     74  68  81 S15G24    29.91F
SIOUX CITY     SUNNY     77  69  76 S15G21    29.89R
SPENCER        SUNNY     77  68  73 S13       29.91S
$$

ABBREVIATIONS USED IN REMARKS
   TC - TEMPERATURE IN CELSIUS
  WCI - WIND CHILL INDEX
   HX - HEAT INDEX
  VSB - VISIBILITY




USA.gov is the U.S. government's official web portal to all federal, state and local government web resources and services.